This is the latest recevied weather packets stored in our database for station/object F5OWB. If no packets are shown the sender has not sent any weather packets the latest 10 day(s).
| Time | Temp. | Humidity | Pressure | Rain* | Wind** | Luminosity | Snow |
|---|---|---|---|---|---|---|---|
| 1778163502 | 17.22° C | 53% | 1017.5 hPa | 0 mm | - | 629 W/m² | - |
| 1778163444 | 17.22° C | 59% | 1017.5 hPa | 0 mm | - | 631 W/m² | - |
| 1778163381 | 17.22° C | 58% | 1017.5 hPa | 0 mm | - | 635 W/m² | - |
| 1778163322 | 17.22° C | 59% | 1017.5 hPa | 0 mm | - | 638 W/m² | - |
| 1778163257 | 17.22° C | 56% | 1017.6 hPa | 0 mm | - | 640 W/m² | - |
| 1778163207 | 17.22° C | 55% | 1017.5 hPa | 0 mm | - | 643 W/m² | - |
| 1778163134 | 17.22° C | 54% | 1017.6 hPa | 0 mm | - | 643 W/m² | - |
| 1778163076 | 17.22° C | 55% | 1017.6 hPa | 0 mm | - | 647 W/m² | - |
| 1778163012 | 17.22° C | 54% | 1017.6 hPa | 0 mm | - | 649 W/m² | - |
| 1778162949 | 17.22° C | 55% | 1017.6 hPa | 0 mm | - | 654 W/m² | - |
| 1778162890 | 17.22° C | 56% | 1017.6 hPa | 0 mm | - | 654 W/m² | - |
| 1778162830 | 17.22° C | 56% | 1017.6 hPa | 0 mm | - | 654 W/m² | - |
| 1778162772 | 17.22° C | 53% | 1017.6 hPa | 0 mm | - | 656 W/m² | - |
| 1778162709 | 17.22° C | 55% | 1017.6 hPa | 0 mm | - | 657 W/m² | - |
| 1778162652 | 17.22° C | 56% | 1017.6 hPa | 0 mm | - | 659 W/m² | - |
| 1778162597 | 17.22° C | 55% | 1017.6 hPa | 0 mm | - | 661 W/m² | - |
| 1778162528 | 17.22° C | 56% | 1017.6 hPa | 0 mm | - | 661 W/m² | - |
| 1778162466 | 17.22° C | 57% | 1017.6 hPa | 0 mm | - | 663 W/m² | - |
| 1778162405 | 17.22° C | 55% | 1017.6 hPa | 0 mm | - | 663 W/m² | - |
| 1778162405 | 17.22° C | 55% | 1017.6 hPa | 0 mm | - | 663 W/m² | - |
| 1778162344 | 17.22° C | 56% | 1017.6 hPa | 0 mm | - | 666 W/m² | - |
| 1778162289 | 17.22° C | 57% | 1017.6 hPa | 0 mm | - | 675 W/m² | - |
| 1778162224 | 17.22° C | 56% | 1017.6 hPa | 0 mm | - | 679 W/m² | - |
| 1778162162 | 17.22° C | 55% | 1017.7 hPa | 0 mm | - | 682 W/m² | - |
| 1778162102 | 17.22° C | 56% | 1017.7 hPa | 0 mm | - | 670 W/m² | - |
* Rain latest hour (hover to see other rain measurements)
** Current wind speed in m/s (hover to see current wind gust speed)